Flag for U.S.A. Weather past 2 weeks in San Buenaventura, California, U.S.A.

Now
60 °F

Low clouds.


Feels Like: 60 °F
Forecast: 56 / 73 °F
Wind: 3 mph from Southeast

Location: Oxnard Airport

Current Time: May 29, 2015 at 6:30:21 AM

Latest Report: May 29, 2015 at 5:51 AM


Visibility: 8 mi

Pressure: 29.94 "Hg

Humidity: 80%

Dew point: 54 °F

Location of San BuenaventuraLocation

Historic Weather in San Buenaventura — Graph

°F

San Buenaventura temperature yesterday

Maximum temperature yesterday: 65 °F (at 2:51 PM)
Minimum temperature yesterday: 55 °F (at 4:02 AM)
Average temperature yesterday: 60 °F

Past Weeks' High & Low Weather Summary

 TemperatureHumidityPressure
High69 °F (May 22, 2:51 PM)84% (May 14, 2:59 PM)30.09 "Hg (May 14, 2:59 PM)
Low52 °F (May 16, 4:51 AM)51% (May 18, 1:51 PM)29.83 "Hg (May 15, 6:51 PM)
Average61 °F72%29.97 "Hg
* Reported May 14 4:51 AM — May 29 4:51 AM, San Buenaventura, Weather by CustomWeather, © 2015

Note: Actual official high and low records may vary slightly from our data, if they occured in-between our weather recording intervals... More about our weather records

Advertising

San Buenaventura weather history for previous 24 hours

 ConditionsComfort  
Time TempWeatherWind HumidityBarometerVisibility
4:51 AM
Fri, May 29
60 °FLow clouds.3 mph83%29.93 "Hg8 mi
3:51 AM59 °FPassing clouds.No wind84%29.93 "Hg8 mi
2:51 AM59 °FLow clouds.No wind84%29.93 "Hg8 mi
1:51 AM58 °FPassing clouds.No wind84%29.93 "Hg8 mi
12:51 AM58 °FPassing clouds.3 mph84%29.94 "Hg9 mi
11:51 PM
Thu, May 28
59 °FLow clouds.6 mph84%29.95 "Hg8 mi
10:51 PM59 °FPassing clouds.5 mph84%29.95 "Hg8 mi
9:51 PM60 °FLow clouds.3 mph83%29.94 "Hg9 mi
8:51 PM60 °FLow clouds.3 mph83%29.93 "Hg9 mi
7:51 PM61 °FSunny.8 mph78%29.92 "Hg9 mi
6:51 PM63 °FSunny.9 mph70%29.92 "Hg10 mi
5:51 PM62 °FPartly sunny.12 mph75%29.93 "Hg8 mi
4:51 PM64 °FScattered clouds.13 mph70%29.94 "Hg10 mi
3:51 PM65 °FSunny.9 mph68%29.95 "Hg10 mi
2:51 PM65 °FSunny.7 mph68%29.96 "Hg10 mi
1:51 PM63 °FPartly sunny.8 mph73%29.98 "Hg10 mi
12:51 PM64 °FOvercast.9 mph70%30.00 "Hg10 mi
11:51 AM64 °FOvercast.6 mph70%30.00 "Hg10 mi
10:51 AM63 °FOvercast.5 mph73%30.01 "Hg8 mi
9:51 AM62 °FOvercast.6 mph73%30.01 "Hg8 mi
8:51 AM60 °FLow clouds.No wind78%30.00 "Hg7 mi
7:51 AM58 °FLow clouds.No wind84%29.99 "Hg6 mi
6:51 AM58 °FLow clouds.No wind81%29.98 "Hg6 mi
Weather by CustomWeather, © 2015

See weather overviewHow to use our weather pages